Weather in Dyurtyuli

Russia / Republic of Bashkortostan     55°29′07″N   54°52′24″E
temp.,
°C
wind,
m/s
gust,
m/s
humid.,
%
clouds,
%
prec.,
mm/h
press.,
hPa
HPBL,
m
28 february, sun
sun2823:00−9ese71194100 3.0 1001416
02:00−10e599499 0.1 1000271
05:00−10ene4795100 0.6 1000260
08:00−11ne3596100 0.4 1001138
11:00−11nne469598 0.7 1001252
14:00−9nne469397 0.2 1002391
17:00−8n479399 0.4 1004499
20:00−10nnw489596 0.2 1007268
1 march, mon
mon123:00−11nnw489593 0.3 1009245
02:00−14nnw359797 0.1 1011102
05:00−14nnw369697 0.1 1013162
08:00−17nw359891 0.1 101479
11:00−17nw359693 0.1 1017208
14:00−15wnw3493100 0.0 1017357
17:00−15wnw4693100 0.1 1018357
20:00−19w339782 0.0 101828
2 march, tue
tue223:00−20wsw339853 0.0 101932
02:00−22sw349754 0.0 101841
05:00−22s469535 0.0 101689
08:00−20s599283 0.0 1013224
11:00−16s7119291 0.0 1010355
14:00−11s71293100 0.2 1007540
17:00−10ssw71194100 1.1 1005628
20:00−10s61293100 0.9 1003600
3 march, wed
wed323:00−8s61294100 1.9 1001556
02:00−6s51095100 1.4 999491
05:00−5s4996100 2.4 997391
08:00−4ssw4796100 0.9 996290
11:00−3w3696100 1.6 997317
14:00−4nw5795100 0.7 998474
17:00−5wnw5893100 0.8 999440
20:00−6wnw3896100 0.1 1001241
4 march, thu
thu423:00−5wnw51095100 0.2 1003341
02:00−8nw489698 0.1 1004171
05:00−10wnw489594 0.1 1005161
08:00−12wnw599553 0.1 1007267
11:00−12w589474 0.2 1008277
14:00−8w589296 0.0 1008394
17:00−7wsw5108992 0.0 1008636
20:00−7sw71388100 0.0 1006528